QPF
0.03 0.03 0.03 0.03 0.03 0.03 0.03 0.02 0.03 0.06 0.06 0.06 0.06 0.05 0.03 0.03 0.03 0.02 0.01 0.02 0.01 0.01 0.01 0.02 0.02 0.01 0.02 0.03 0.05 0.04 0.03 0.04 0.04 0.06 0.07 0.06 0.05 0.04
0.03 0.03 0.03 0.02 0.02 0.02 0.02 0.02 0.02 0.04 0.05 0.04 0.03 0.02 0.01 0.01 0.02 0.02 0.01 0.01 0.01 0.01 0.01 0.02 0.02 0.02 0.02 0.02 0.03 0.03 0.04 0.05 0.05 0.06 0.08 0.08 0.07 0.04
0.03 0.03 0.03 0.03 0.02 0.02 0.02 0.02 0.02 0.02 0.03 0.04 0.04 0.03 0.02 0.01 0.01 0.01 0.00 0.00 0.01 0.01 0.01 0.01 0.01 0.02 0.02 0.02 0.01 0.01 0.02 0.03 0.04 0.05 0.06 0.08 0.09 0.06
0.03 0.03 0.03 0.04 0.03 0.03 0.02 0.02 0.02 0.02 0.03 0.03 0.03 0.03 0.03 0.02 0.01 0.00 0.00 0.00 0.00 0.01 0.01 0.01 0.01 0.02 0.02 0.02 0.01 0.01 0.01 0.01 0.02 0.04 0.04 0.06 0.07 0.06
0.03 0.03 0.03 0.03 0.03 0.03 0.03 0.02 0.02 0.01 0.01 0.01 0.01 0.01 0.01 0.01 0.01 0.00 0.00 0.00 0.00 0.00 0.00 0.00 0.01 0.01 0.02 0.02 0.01 0.00 0.00 0.01 0.01 0.02 0.03 0.03 0.04 0.04
0.05 0.04 0.03 0.03 0.03 0.03 0.03 0.03 0.02 0.02 0.02 0.02 0.02 0.01 0.01 0.00 0.00 0.00 0.00 0.00 0.00 0.00 0.00 0.00 0.00 0.01 0.01 0.01 0.01 0.00 0.00 0.01 0.01 0.02 0.02 0.03 0.03 0.03
0.06 0.06 0.05 0.04 0.03 0.03 0.03 0.03 0.03 0.03 0.02 0.02 0.02 0.02 0.01 0.01 0.00 0.00 0.00 0.00 0.00 0.00 0.00 0.00 0.00 0.00 0.00 0.01 0.01 0.00 0.00 0.00 0.01 0.02 0.02 0.03 0.03 0.03
0.06 0.06 0.06 0.06 0.05 0.04 0.03 0.02 0.02 0.03 0.03 0.02 0.02 0.01 0.01 0.01 0.00 0.00 0.00 0.00 0.00 0.00 0.00 0.00 0.00 0.00 0.00 0.00 0.01 0.01 0.01 0.01 0.01 0.01 0.02 0.02 0.03 0.02
0.05 0.05 0.05 0.05 0.05 0.05 0.04 0.03 0.03 0.02 0.02 0.02 0.02 0.01 0.01 0.01 0.01 0.01 0.00 0.00 0.00 0.00 0.00 0.00 0.00 0.00 0.00 0.00 0.00 0.01 0.01 0.01 0.00 0.01 0.01 0.02 0.02 0.02
0.05 0.05 0.05 0.05 0.04 0.04 0.04 0.04 0.03 0.02 0.02 0.02 0.01 0.01 0.01 0.01 0.01 0.01 0.01 0.00 0.00 0.00 0.00 0.00 0.00 0.00 0.00 0.00 0.00 0.00 0.00 0.00 0.00 0.01 0.01 0.01 0.02 0.02
0.04 0.04 0.04 0.04 0.04 0.04 0.04 0.03 0.03 0.02 0.02 0.01 0.01 0.01 0.01 0.01 0.01 0.01 0.01 0.01 0.01 0.00 0.00 0.00 0.00 0.00 0.00 0.00 0.00 0.00 0.00 0.00 0.00 0.01 0.01 0.01 0.01 0.02
0.03 0.03 0.04 0.04 0.04 0.04 0.04 0.03 0.03 0.02 0.02 0.02 0.01 0.01 0.01 0.01 0.01 0.01 0.01 0.01 0.01 0.00 0.00 0.00 0.00 0.00 0.00 0.00 0.00 0.00 0.00 0.00 0.00 0.01 0.01 0.01 0.01 0.01
0.03 0.02 0.02 0.03 0.04 0.04 0.04 0.03 0.03 0.02 0.02 0.02 0.01 0.01 0.01 0.01 0.01 0.00 0.01 0.01 0.01 0.01 0.00 0.00 0.01 0.01 0.01 0.00 0.00 0.00 0.00 0.01 0.01 0.01 0.01 0.01 0.01 0.01
0.03 0.02 0.02 0.02 0.03 0.03 0.03 0.04 0.03 0.03 0.03 0.02 0.02 0.01 0.01 0.01 0.01 0.00 0.00 0.00 0.00 0.00 0.00 0.01 0.01 0.01 0.01 0.01 0.00 0.00 0.00 0.01 0.01 0.01 0.01 0.01 0.01 0.01
0.03 0.02 0.02 0.03 0.03 0.03 0.02 0.03 0.03 0.03 0.03 0.02 0.02 0.01 0.01 0.01 0.01 0.01 0.01 0.00 0.00 0.00 0.00 0.00 0.01 0.01 0.01 0.01 0.01 0.00 0.00 0.00 0.01 0.01 0.01 0.01 0.01 0.01
0.04 0.04 0.04 0.03 0.03 0.03 0.02 0.03 0.03 0.02 0.02 0.01 0.01 0.01 0.01 0.01 0.01 0.01 0.01 0.01 0.01 0.01 0.01 0.01 0.01 0.01 0.01 0.01 0.01 0.01 0.00 0.00 0.00 0.01 0.01 0.01 0.01 0.01
0.03 0.04 0.04 0.03 0.03 0.02 0.02 0.02 0.02 0.02 0.02 0.01 0.01 0.01 0.01 0.01 0.01 0.01 0.01 0.01 0.01 0.01 0.01 0.00 0.00 0.00 0.00 0.00 0.01 0.00 0.00 0.00 0.00 0.00 0.01 0.01 0.01 0.01
0.04 0.03 0.02 0.02 0.01 0.02 0.02 0.02 0.02 0.02 0.02 0.01 0.01 0.01 0.01 0.01 0.01 0.01 0.01 0.01 0.01 0.01 0.01 0.00 0.00 0.01 0.01 0.00 0.00 0.00 0.00 0.00 0.00 0.00 0.01 0.01 0.01 0.01
0.04 0.03 0.01 0.01 0.01 0.01 0.01 0.01 0.01 0.02 0.02 0.01 0.01 0.01 0.01 0.01 0.01 0.01 0.01 0.01 0.01 0.01 0.01 0.01 0.01 0.01 0.01 0.01 0.00 0.00 0.00 0.00 0.00 0.01 0.01 0.01 0.01 0.01
0.04 0.03 0.02 0.02 0.01 0.01 0.01 0.01 0.01 0.02 0.02 0.01 0.01 0.01 0.01 0.01 0.01 0.01 0.01 0.01 0.01 0.01 0.01 0.01 0.01 0.01 0.01 0.01 0.01 0.00 0.00 0.00 0.01 0.01 0.01 0.01 0.01 0.01
0.03 0.03 0.02 0.02 0.01 0.01 0.01 0.01 0.01 0.01 0.01 0.01 0.01 0.01 0.01 0.01 0.01 0.01 0.01 0.01 0.01 0.01 0.01 0.01 0.01 0.01 0.01 0.02 0.02 0.01 0.00 0.00 0.00 0.01 0.01 0.01 0.01 0.01
0.02 0.02 0.02 0.02 0.02 0.02 0.02 0.02 0.02 0.02 0.01 0.01 0.01 0.01 0.01 0.01 0.01 0.01 0.01 0.01 0.01 0.01 0.01 0.01 0.01 0.01 0.02 0.02 0.01 0.00 0.00 0.00 0.00 0.00 0.01 0.01 0.02 0.01
0.02 0.02 0.01 0.02 0.02 0.02 0.02 0.02 0.02 0.02 0.01 0.01 0.01 0.01 0.01 0.01 0.01 0.01 0.01 0.01 0.01 0.01 0.01 0.01 0.01 0.01 0.02 0.01 0.01 0.01 0.00 0.00 0.00 0.01 0.00 0.01 0.01 0.01
MSLP
1026.70 1027.21 1027.71 1028.19 1028.64 1029.03 1029.39 1029.71 1030.00 1030.28 1030.54 1030.79 1031.02 1031.22 1031.39 1031.50 1031.58 1031.61 1031.60 1031.58 1031.56 1031.55 1031.58 1031.65 1031.74 1031.87 1032.02 1032.17 1032.30 1032.42 1032.52 1032.59 1032.65 1032.67 1032.69 1032.69 1032.69 1032.67
1026.37 1026.88 1027.37 1027.84 1028.27 1028.66 1029.01 1029.32 1029.61 1029.89 1030.15 1030.41 1030.66 1030.89 1031.08 1031.22 1031.31 1031.36 1031.36 1031.33 1031.29 1031.26 1031.26 1031.28 1031.34 1031.43 1031.54 1031.66 1031.77 1031.86 1031.94 1032.00 1032.03 1032.06 1032.07 1032.08 1032.08 1032.09
1025.99 1026.49 1026.99 1027.46 1027.90 1028.29 1028.64 1028.95 1029.25 1029.52 1029.79 1030.06 1030.31 1030.55 1030.76 1030.92 1031.04 1031.10 1031.11 1031.09 1031.04 1030.99 1030.95 1030.93 1030.94 1030.98 1031.03 1031.10 1031.17 1031.22 1031.27 1031.30 1031.32 1031.34 1031.36 1031.38 1031.42 1031.46
1025.56 1026.06 1026.57 1027.05 1027.50 1027.91 1028.28 1028.61 1028.90 1029.18 1029.46 1029.72 1029.98 1030.22 1030.44 1030.62 1030.76 1030.84 1030.87 1030.85 1030.80 1030.74 1030.66 1030.60 1030.56 1030.53 1030.52 1030.52 1030.53 1030.54 1030.54 1030.55 1030.56 1030.57 1030.60 1030.65 1030.72 1030.80
1025.09 1025.60 1026.11 1026.61 1027.09 1027.52 1027.91 1028.26 1028.58 1028.87 1029.14 1029.40 1029.66 1029.90 1030.12 1030.31 1030.46 1030.56 1030.61 1030.61 1030.56 1030.48 1030.38 1030.28 1030.18 1030.09 1030.01 1029.94 1029.88 1029.84 1029.81 1029.79 1029.79 1029.81 1029.85 1029.93 1030.03 1030.15
1024.62 1025.12 1025.64 1026.16 1026.66 1027.13 1027.55 1027.93 1028.26 1028.55 1028.82 1029.08 1029.32 1029.55 1029.77 1029.97 1030.12 1030.24 1030.31 1030.32 1030.29 1030.20 1030.09 1029.95 1029.80 1029.65 1029.50 1029.37 1029.26 1029.17 1029.11 1029.07 1029.07 1029.10 1029.17 1029.27 1029.40 1029.56
1024.17 1024.66 1025.18 1025.72 1026.24 1026.73 1027.18 1027.58 1027.93 1028.22 1028.49 1028.73 1028.95 1029.17 1029.38 1029.57 1029.73 1029.86 1029.95 1029.98 1029.95 1029.88 1029.75 1029.59 1029.41 1029.22 1029.03 1028.85 1028.70 1028.59 1028.51 1028.47 1028.47 1028.51 1028.60 1028.72 1028.88 1029.05
1023.78 1024.26 1024.78 1025.31 1025.84 1026.35 1026.82 1027.23 1027.58 1027.88 1028.13 1028.35 1028.55 1028.74 1028.93 1029.11 1029.28 1029.42 1029.52 1029.57 1029.56 1029.49 1029.37 1029.21 1029.01 1028.80 1028.59 1028.40 1028.24 1028.11 1028.04 1028.01 1028.02 1028.09 1028.19 1028.33 1028.50 1028.67
1023.50 1023.95 1024.44 1024.97 1025.50 1026.01 1026.47 1026.88 1027.23 1027.51 1027.74 1027.93 1028.10 1028.27 1028.44 1028.61 1028.77 1028.92 1029.03 1029.10 1029.12 1029.07 1028.97 1028.82 1028.63 1028.42 1028.22 1028.04 1027.89 1027.78 1027.73 1027.72 1027.77 1027.86 1027.98 1028.12 1028.28 1028.44
1023.33 1023.75 1024.21 1024.71 1025.22 1025.71 1026.16 1026.55 1026.88 1027.14 1027.34 1027.50 1027.64 1027.78 1027.93 1028.08 1028.24 1028.39 1028.52 1028.62 1028.66 1028.64 1028.57 1028.45 1028.29 1028.12 1027.95 1027.80 1027.68 1027.62 1027.60 1027.63 1027.71 1027.82 1027.94 1028.09 1028.23 1028.36
1023.29 1023.66 1024.09 1024.55 1025.02 1025.48 1025.90 1026.26 1026.55 1026.78 1026.95 1027.09 1027.20 1027.31 1027.44 1027.58 1027.74 1027.90 1028.05 1028.16 1028.23 1028.25 1028.22 1028.14 1028.03 1027.91 1027.79 1027.69 1027.63 1027.61 1027.64 1027.71 1027.82 1027.94 1028.07 1028.20 1028.32 1028.40
1023.37 1023.70 1024.07 1024.48 1024.90 1025.32 1025.69 1026.02 1026.27 1026.46 1026.61 1026.71 1026.80 1026.90 1027.02 1027.16 1027.32 1027.49 1027.65 1027.79 1027.90 1027.95 1027.97 1027.94 1027.88 1027.81 1027.75 1027.71 1027.71 1027.74 1027.82 1027.93 1028.05 1028.19 1028.31 1028.42 1028.49 1028.52
1023.56 1023.83 1024.15 1024.50 1024.87 1025.23 1025.56 1025.84 1026.05 1026.21 1026.33 1026.41 1026.49 1026.57 1026.68 1026.82 1026.99 1027.18 1027.36 1027.53 1027.67 1027.77 1027.83 1027.85 1027.85 1027.84 1027.84 1027.85 1027.90 1027.98 1028.09 1028.22 1028.36 1028.49 1028.59 1028.66 1028.69 1028.66
1023.85 1024.07 1024.33 1024.63 1024.94 1025.24 1025.52 1025.75 1025.92 1026.05 1026.13 1026.20 1026.26 1026.34 1026.46 1026.61 1026.79 1026.99 1027.20 1027.40 1027.57 1027.71 1027.81 1027.89 1027.93 1027.97 1028.02 1028.08 1028.17 1028.28 1028.41 1028.55 1028.68 1028.79 1028.86 1028.88 1028.84 1028.75
1024.23 1024.40 1024.62 1024.86 1025.12 1025.37 1025.59 1025.77 1025.90 1025.99 1026.05 1026.09 1026.15 1026.23 1026.34 1026.50 1026.69 1026.91 1027.14 1027.37 1027.58 1027.75 1027.90 1028.01 1028.10 1028.18 1028.27 1028.36 1028.47 1028.60 1028.73 1028.86 1028.96 1029.03 1029.06 1029.02 1028.91 1028.75
1024.72 1024.85 1025.02 1025.22 1025.43 1025.63 1025.80 1025.93 1026.01 1026.06 1026.09 1026.12 1026.15 1026.22 1026.33 1026.49 1026.69 1026.92 1027.17 1027.42 1027.65 1027.86 1028.04 1028.19 1028.31 1028.43 1028.54 1028.66 1028.78 1028.90 1029.02 1029.11 1029.18 1029.19 1029.15 1029.04 1028.87 1028.63
1025.31 1025.42 1025.57 1025.74 1025.90 1026.06 1026.18 1026.25 1026.29 1026.30 1026.28 1026.27 1026.28 1026.33 1026.42 1026.57 1026.76 1027.00 1027.25 1027.52 1027.77 1028.00 1028.21 1028.38 1028.54 1028.68 1028.81 1028.93 1029.05 1029.15 1029.24 1029.30 1029.31 1029.26 1029.15 1028.96 1028.70 1028.38
1026.03 1026.14 1026.27 1026.42 1026.55 1026.67 1026.74 1026.77 1026.75 1026.70 1026.64 1026.57 1026.54 1026.54 1026.60 1026.72 1026.90 1027.12 1027.37 1027.63 1027.90 1028.14 1028.37 1028.57 1028.75 1028.91 1029.05 1029.17 1029.27 1029.36 1029.41 1029.41 1029.36 1029.24 1029.05 1028.78 1028.44 1028.02
1026.86 1026.98 1027.11 1027.25 1027.37 1027.45 1027.47 1027.45 1027.38 1027.27 1027.14 1027.01 1026.92 1026.87 1026.88 1026.95 1027.09 1027.28 1027.51 1027.77 1028.03 1028.29 1028.53 1028.74 1028.94 1029.11 1029.25 1029.37 1029.46 1029.52 1029.53 1029.48 1029.37 1029.18 1028.91 1028.56 1028.12 1027.62
1027.77 1027.91 1028.06 1028.20 1028.30 1028.35 1028.34 1028.27 1028.14 1027.96 1027.77 1027.57 1027.41 1027.29 1027.23 1027.25 1027.34 1027.49 1027.69 1027.92 1028.18 1028.43 1028.68 1028.90 1029.11 1029.29 1029.43 1029.55 1029.62 1029.66 1029.63 1029.54 1029.36 1029.11 1028.76 1028.32 1027.80 1027.21
1028.70 1028.87 1029.03 1029.17 1029.27 1029.30 1029.26 1029.14 1028.96 1028.73 1028.47 1028.20 1027.97 1027.78 1027.66 1027.61 1027.64 1027.74 1027.90 1028.11 1028.34 1028.59 1028.83 1029.06 1029.27 1029.45 1029.60 1029.71 1029.78 1029.78 1029.72 1029.59 1029.37 1029.05 1028.63 1028.12 1027.52 1026.84
1029.57 1029.76 1029.94 1030.08 1030.17 1030.18 1030.12 1029.97 1029.75 1029.47 1029.16 1028.84 1028.54 1028.29 1028.11 1028.00 1027.97 1028.02 1028.14 1028.32 1028.53 1028.76 1028.99 1029.22 1029.43 1029.61 1029.76 1029.87 1029.92 1029.91 1029.82 1029.65 1029.39 1029.02 1028.55 1027.98 1027.30 1026.55
1030.28 1030.48 1030.66 1030.81 1030.89 1030.90 1030.82 1030.66 1030.41 1030.11 1029.76 1029.40 1029.06 1028.77 1028.53 1028.37 1028.30 1028.31 1028.39 1028.53 1028.71 1028.92 1029.15 1029.37 1029.57 1029.75 1029.90 1030.00 1030.04 1030.02 1029.92 1029.73 1029.43 1029.03 1028.51 1027.89 1027.16 1026.35
Thickness
5487 5486 5485 5484 5483 5482 5481 5479 5474 5468 5465 5465 5465 5466 5465 5464 5464 5464 5464 5464 5464 5466 5467 5469 5471 5472 5473 5475 5476 5477 5477 5477 5478 5478 5479 5479 5479 5480
5475 5474 5474 5473 5472 5471 5470 5469 5468 5465 5458 5456 5455 5455 5453 5452 5452 5452 5453 5452 5453 5454 5456 5457 5458 5460 5461 5462 5463 5464 5464 5465 5465 5465 5466 5466 5466 5467
5463 5463 5462 5461 5460 5459 5458 5457 5456 5454 5448 5445 5444 5443 5442 5440 5440 5440 5441 5441 5441 5443 5444 5445 5446 5447 5448 5449 5450 5451 5451 5451 5452 5452 5452 5452 5452 5453
5452 5451 5450 5449 5448 5447 5445 5444 5443 5442 5438 5433 5431 5430 5430 5429 5428 5428 5429 5429 5429 5431 5432 5433 5433 5434 5434 5436 5437 5438 5438 5438 5438 5438 5439 5439 5439 5439
5441 5439 5438 5437 5436 5434 5433 5431 5430 5429 5427 5423 5419 5418 5417 5416 5416 5416 5416 5416 5417 5418 5419 5419 5420 5421 5422 5423 5423 5424 5425 5425 5425 5425 5425 5425 5425 5425
5429 5427 5426 5425 5424 5422 5420 5419 5417 5415 5412 5409 5407 5405 5403 5403 5402 5402 5402 5402 5403 5404 5405 5406 5407 5408 5408 5409 5410 5411 5411 5411 5412 5412 5412 5412 5412 5411
5415 5414 5413 5412 5411 5410 5408 5406 5405 5402 5399 5396 5394 5392 5390 5389 5388 5388 5387 5387 5389 5390 5391 5393 5394 5394 5395 5395 5396 5397 5398 5398 5399 5399 5399 5399 5398 5397
5402 5401 5399 5398 5397 5396 5394 5394 5393 5390 5387 5384 5381 5380 5379 5377 5375 5375 5373 5373 5373 5376 5376 5377 5379 5380 5381 5382 5383 5384 5385 5385 5386 5386 5386 5385 5385 5384
5389 5387 5385 5384 5383 5381 5379 5379 5378 5377 5376 5374 5370 5368 5366 5365 5363 5361 5359 5358 5359 5361 5361 5363 5365 5366 5367 5368 5369 5370 5371 5371 5372 5372 5372 5371 5371 5370
5375 5373 5372 5370 5368 5367 5365 5363 5362 5361 5360 5359 5358 5355 5353 5351 5350 5348 5346 5345 5345 5347 5347 5347 5350 5351 5354 5354 5354 5356 5357 5357 5357 5358 5358 5357 5357 5356
5360 5359 5357 5356 5355 5353 5351 5349 5347 5345 5344 5343 5343 5341 5340 5338 5336 5334 5332 5331 5330 5332 5332 5332 5334 5336 5339 5340 5340 5340 5341 5342 5342 5342 5342 5342 5342 5342
5345 5344 5343 5341 5340 5339 5336 5334 5332 5330 5329 5328 5327 5326 5324 5323 5322 5320 5319 5317 5316 5316 5318 5317 5318 5319 5321 5325 5325 5325 5325 5325 5326 5326 5326 5326 5326 5327
5331 5329 5328 5327 5326 5324 5322 5320 5318 5316 5314 5313 5311 5310 5309 5308 5307 5306 5305 5304 5303 5302 5303 5302 5302 5302 5302 5306 5309 5309 5309 5309 5309 5309 5309 5310 5310 5311
5317 5315 5314 5313 5312 5310 5308 5306 5304 5302 5300 5298 5297 5295 5294 5293 5292 5292 5291 5290 5290 5289 5288 5288 5287 5287 5287 5288 5291 5293 5293 5293 5293 5294 5294 5294 5295 5295
5303 5301 5300 5298 5297 5295 5294 5292 5289 5287 5285 5284 5283 5281 5280 5279 5278 5277 5277 5276 5276 5275 5275 5275 5274 5274 5273 5273 5274 5276 5276 5278 5278 5279 5280 5279 5280 5280
5288 5287 5286 5283 5282 5280 5278 5276 5274 5272 5271 5270 5268 5267 5265 5264 5263 5263 5262 5262 5261 5262 5262 5261 5261 5260 5259 5260 5260 5261 5261 5262 5264 5264 5265 5266 5266 5266
5274 5272 5269 5267 5266 5264 5262 5261 5259 5258 5256 5255 5254 5252 5251 5251 5250 5249 5248 5248 5248 5247 5247 5247 5247 5247 5247 5247 5247 5248 5248 5248 5249 5250 5251 5252 5253 5253
5261 5258 5255 5253 5252 5250 5248 5247 5246 5244 5242 5241 5240 5238 5237 5236 5236 5235 5235 5234 5234 5234 5234 5234 5233 5233 5233 5235 5236 5236 5235 5235 5236 5236 5237 5237 5240 5241
5247 5244 5242 5240 5238 5236 5235 5233 5232 5230 5228 5227 5226 5225 5224 5223 5222 5221 5221 5221 5220 5220 5220 5220 5219 5218 5217 5219 5222 5222 5221 5222 5222 5223 5223 5224 5226 5229
5233 5231 5229 5227 5225 5223 5221 5219 5218 5216 5215 5213 5212 5211 5210 5209 5208 5207 5207 5207 5207 5206 5206 5207 5206 5206 5205 5206 5207 5209 5209 5209 5210 5210 5211 5212 5214 5216
5218 5217 5215 5213 5211 5210 5208 5206 5204 5203 5201 5200 5198 5197 5196 5195 5194 5194 5193 5194 5194 5193 5193 5194 5195 5195 5194 5193 5193 5196 5198 5198 5198 5198 5199 5199 5201 5203
5204 5203 5201 5200 5198 5196 5195 5193 5191 5189 5188 5186 5185 5184 5183 5182 5181 5180 5180 5180 5180 5180 5180 5181 5182 5182 5181 5181 5182 5184 5185 5187 5187 5187 5187 5187 5187 5189
5191 5189 5188 5186 5185 5183 5182 5180 5179 5177 5175 5174 5172 5171 5170 5169 5168 5167 5167 5167 5167 5167 5167 5168 5169 5169 5170 5170 5171 5172 5173 5174 5175 5176 5177 5177 5177 5179